Time,TemperatureF,DewpointF,PressureIn,WindDirection,WindDirectionDegrees,WindSpeedMPH,WindSpeedGustMPH,Humidity,HourlyPrecipIn,Conditions,Clouds,dailyrainin,SoftwareType,DateUTC
2013-01-04 00:00:00,24.0,20.7,30.11,WNW,292,1.6,8.1,87,0.00,CLR,SKC,0.01,WeatherDisplay:10.37,2013-01-04 05:00:00,
2013-01-04 00:01:00,24.0,20.7,30.11,West,270,2.9,6.0,87,0.00,RA,SKC,0.00,WeatherDisplay:10.37,2013-01-04 05:01:00,
2013-01-04 00:03:00,24.0,20.7,30.10,WNW,292,1.1,4.6,87,0.00,RA,SKC,0.00,WeatherDisplay:10.37,2013-01-04 05:03:00,
2013-01-04 00:08:00,23.0,20.0,30.10,WSW,247,2.7,4.6,88,0.00,RA,SKC,0.00,WeatherDisplay:10.37,2013-01-04 05:08:00,
2013-01-04 00:13:00,24.0,20.7,30.10,West,270,2.0,4.6,87,0.00,CLR,SKC,0.00,WeatherDisplay:10.37,2013-01-04 05:13:00,
2013-01-04 00:18:00,23.0,19.7,30.10,WNW,292,1.6,4.6,87,0.00,CLR,SKC,0.00,WeatherDisplay:10.37,2013-01-04 05:18:00,
2013-01-04 00:23:00,23.0,20.0,30.09,WNW,292,0.9,3.5,88,0.00,CLR,SKC,0.00,WeatherDisplay:10.37,2013-01-04 05:23:00,
2013-01-04 00:28:00,23.0,20.2,30.09,WNW,292,0.0,2.3,89,0.00,CLR,SKC,0.00,WeatherDisplay:10.37,2013-01-04 05:28:00,
2013-01-04 00:33:00,23.0,20.2,30.09,WNW,292,1.4,5.8,89,0.00,CLR,SKC,0.00,WeatherDisplay:10.37,2013-01-04 05:33:00,
2013-01-04 00:38:00,24.0,21.0,30.09,West,270,6.6,8.1,88,0.00,CLR,SKC,0.00,WeatherDisplay:10.37,2013-01-04 05:38:00,
2013-01-04 00:43:00,24.0,21.0,30.08,SSE,157,2.8,3.5,88,0.00,CLR,SKC,0.00,WeatherDisplay:10.37,2013-01-04 05:43:00,
2013-01-04 00:48:00,23.0,20.2,30.08,WSW,247,4.2,8.1,89,0.00,CLR,SKC,0.00,WeatherDisplay:10.37,2013-01-04 05:48:00,
2013-01-04 00:53:00,23.0,20.2,30.09,West,270,0.9,4.0,89,0.00,CLR,SKC,0.00,WeatherDisplay:10.37,2013-01-04 05:53:00,
2013-01-04 00:59:00,23.0,20.2,30.09,South,180,0.4,4.6,89,0.00,CLR,SKC,0.00,WeatherDisplay:10.37,2013-01-04 05:59:00,
2013-01-04 01:04:00,22.0,19.3,30.08,WSW,247,0.2,4.0,89,0.00,CLR,SKC,0.00,WeatherDisplay:10.37,2013-01-04 06:04:00,
2013-01-04 01:09:00,22.0,19.3,30.08,WSW,247,0.0,0.0,89,0.00,CLR,SKC,0.00,WeatherDisplay:10.37,2013-01-04 06:09:00,
2013-01-04 01:14:00,22.0,19.3,30.08,SSW,202,0.0,0.0,89,0.00,CLR,SKC,0.00,WeatherDisplay:10.37,2013-01-04 06:14:00,
2013-01-04 01:19:00,22.0,19.3,30.08,WSW,247,0.5,2.3,89,0.00,CLR,SKC,0.00,WeatherDisplay:10.37,2013-01-04 06:19:00,
2013-01-04 01:24:00,21.0,18.5,30.08,WSW,247,0.0,0.0,90,0.00,CLR,SKC,0.00,WeatherDisplay:10.37,2013-01-04 06:24:00,
2013-01-04 01:29:00,20.0,17.8,30.08,WSW,247,0.0,0.0,91,0.00,CLR,SKC,0.00,WeatherDisplay:10.37,2013-01-04 06:29:00,
2013-01-04 01:34:00,20.0,17.8,30.08,WNW,292,0.0,0.0,91,0.00,CLR,SKC,0.00,WeatherDisplay:10.37,2013-01-04 06:34:00,
2013-01-04 01:39:00,20.0,18.1,30.08,SSW,202,0.9,3.5,92,0.00,CLR,SKC,0.00,WeatherDisplay:10.37,2013-01-04 06:39:00,
2013-01-04 01:44:00,20.0,18.3,30.08,SSE,157,0.0,0.0,93,0.00,CLR,SKC,0.00,WeatherDisplay:10.37,2013-01-04 06:44:00,
2013-01-04 01:49:00,19.0,17.8,30.08,SSE,157,0.0,0.0,95,0.00,CLR,SKC,0.00,WeatherDisplay:10.37,2013-01-04 06:49:00,
2013-01-04 01:54:00,20.0,18.8,30.08,WSW,247,0.2,1.2,95,0.00,CLR,SKC,0.00,WeatherDisplay:10.37,2013-01-04 06:54:00,
2013-01-04 01:59:00,19.0,18.3,30.08,SSW,202,0.0,0.0,97,0.00,CLR,SKC,0.00,WeatherDisplay:10.37,2013-01-04 06:59:00,
2013-01-04 02:04:00,18.0,17.3,30.08,SSW,202,0.0,0.0,97,0.00,CLR,SKC,0.00,WeatherDisplay:10.37,2013-01-04 07:04:00,
2013-01-04 02:09:00,18.0,17.5,30.08,SSW,202,0.0,0.0,98,0.00,CLR,SKC,0.00,WeatherDisplay:10.37,2013-01-04 07:09:00,
2013-01-04 02:14:00,18.0,17.8,30.08,SSW,202,0.0,0.0,99,0.00,CLR,SKC,0.00,WeatherDisplay:10.37,2013-01-04 07:14:00,
2013-01-04 02:19:00,18.0,18.0,30.08,SSW,202,0.0,0.0,100,0.00,CLR,SKC,0.00,WeatherDisplay:10.37,2013-01-04 07:19:00,
2013-01-04 02:24:00,18.0,18.0,30.08,SSW,202,0.0,0.0,100,0.00,,SKC,0.00,WeatherDisplay:10.37,2013-01-04 07:24:00,
2013-01-04 02:29:00,17.0,17.0,30.08,SE,135,0.0,0.0,100,0.00,,SKC,0.00,WeatherDisplay:10.37,2013-01-04 07:29:00,
2013-01-04 02:34:00,18.0,18.0,30.08,SSW,202,0.0,0.0,100,0.00,,SKC,0.00,WeatherDisplay:10.37,2013-01-04 07:34:00,
2013-01-04 02:39:00,18.0,18.0,30.08,SSW,202,0.0,0.0,100,0.00,,SKC,0.00,WeatherDisplay:10.37,2013-01-04 07:39:00,
2013-01-04 02:44:00,19.0,19.0,30.08,WSW,247,0.0,0.0,100,0.00,,SKC,0.00,WeatherDisplay:10.37,2013-01-04 07:44:00,
2013-01-04 02:49:00,18.0,18.0,30.08,WSW,247,0.0,0.0,100,0.00,,SKC,0.00,WeatherDisplay:10.37,2013-01-04 07:49:00,
2013-01-04 02:54:00,17.0,17.0,30.07,NNE,22,0.0,0.0,100,0.00,,SKC,0.00,WeatherDisplay:10.37,2013-01-04 07:54:00,
2013-01-04 02:59:00,18.0,18.0,30.07,WNW,292,0.1,1.2,100,0.00,,SKC,0.00,WeatherDisplay:10.37,2013-01-04 07:59:00,
2013-01-04 03:04:00,21.0,21.0,30.07,WNW,292,2.2,6.9,100,0.00,,SKC,0.00,WeatherDisplay:10.37,2013-01-04 08:04:00,
2013-01-04 03:09:00,23.0,23.0,30.07,WNW,292,1.3,3.5,100,0.00,,SKC,0.00,WeatherDisplay:10.37,2013-01-04 08:09:00,
2013-01-04 03:14:00,24.0,24.0,30.07,WNW,292,1.1,3.5,100,0.00,,SKC,0.00,WeatherDisplay:10.37,2013-01-04 08:14:00,
2013-01-04 03:19:00,25.0,25.0,30.07,West,270,3.2,4.6,100,0.00,,SKC,0.00,WeatherDisplay:10.37,2013-01-04 08:19:00,
2013-01-04 03:24:00,25.0,25.0,30.07,WNW,292,3.7,6.0,100,0.00,,SKC,0.00,WeatherDisplay:10.37,2013-01-04 08:24:00,
2013-01-04 03:29:00,25.0,25.0,30.07,West,270,3.6,8.1,100,0.00,,SKC,0.00,WeatherDisplay:10.37,2013-01-04 08:29:00,
2013-01-04 03:34:00,26.0,26.0,30.07,WNW,292,3.5,8.1,100,0.00,,SKC,0.00,WeatherDisplay:10.37,2013-01-04 08:34:00,
2013-01-04 03:39:00,26.0,26.0,30.07,WSW,247,2.6,4.6,100,0.00,,SKC,0.00,WeatherDisplay:10.37,2013-01-04 08:39:00,
2013-01-04 03:44:00,25.0,25.0,30.06,WSW,247,4.5,9.2,100,0.00,,SKC,0.00,WeatherDisplay:10.37,2013-01-04 08:44:00,
2013-01-04 03:49:00,26.0,25.8,30.06,WSW,247,2.3,4.6,99,0.00,,SKC,0.00,WeatherDisplay:10.37,2013-01-04 08:49:00,
2013-01-04 03:54:00,25.0,24.8,30.06,WNW,292,0.5,3.5,99,0.00,CLR,SKC,0.00,WeatherDisplay:10.37,2013-01-04 08:54:00,
2013-01-04 03:59:00,26.0,25.8,30.06,West,270,4.0,8.0,99,0.00,CLR,SKC,0.00,WeatherDisplay:10.37,2013-01-04 08:59:00,
2013-01-04 04:04:00,26.0,25.8,30.06,WNW,292,1.2,4.6,99,0.00,CLR,SKC,0.00,WeatherDisplay:10.37,2013-01-04 09:04:00,
2013-01-04 04:09:00,26.0,25.8,30.06,WNW,292,5.0,8.1,99,0.00,CLR,SKC,0.00,WeatherDisplay:10.37,2013-01-04 09:09:00,
2013-01-04 04:14:00,26.0,25.8,30.06,West,270,1.0,3.5,99,0.00,CLR,SKC,0.00,WeatherDisplay:10.37,2013-01-04 09:14:00,
2013-01-04 04:19:00,26.0,25.8,30.06,WNW,292,1.8,4.6,99,0.00,CLR,SKC,0.00,WeatherDisplay:10.37,2013-01-04 09:19:00,
2013-01-04 04:24:00,26.0,25.8,30.06,WSW,247,3.6,10.4,99,0.00,CLR,SKC,0.00,WeatherDisplay:10.37,2013-01-04 09:24:00,
2013-01-04 04:29:00,26.0,25.8,30.06,WSW,247,2.9,6.9,99,0.00,CLR,SKC,0.00,WeatherDisplay:10.37,2013-01-04 09:29:00,
2013-01-04 04:34:00,26.0,25.8,30.06,WNW,292,2.4,4.6,99,0.00,CLR,SKC,0.00,WeatherDisplay:10.37,2013-01-04 09:34:00,
2013-01-04 04:39:00,26.0,25.8,30.06,WNW,292,2.7,5.8,99,0.00,CLR,SKC,0.00,WeatherDisplay:10.37,2013-01-04 09:39:00,
2013-01-04 04:44:00,26.0,25.8,30.06,WNW,292,2.9,4.6,99,0.00,CLR,SKC,0.00,WeatherDisplay:10.37,2013-01-04 09:44:00,
2013-01-04 04:49:00,27.0,26.5,30.06,WSW,247,4.0,7.0,98,0.00,CLR,SKC,0.00,WeatherDisplay:10.37,2013-01-04 09:49:00,
2013-01-04 04:54:00,27.0,26.5,30.06,WSW,247,0.7,3.5,98,0.00,CLR,SKC,0.00,WeatherDisplay:10.37,2013-01-04 09:54:00,
2013-01-04 04:59:00,27.0,26.5,30.06,WSW,247,1.2,5.8,98,0.00,CLR,SKC,0.00,WeatherDisplay:10.37,2013-01-04 09:59:00,
2013-01-04 05:04:00,26.0,25.8,30.06,West,270,1.6,4.6,99,0.00,CLR,SKC,0.00,WeatherDisplay:10.37,2013-01-04 10:04:00,
2013-01-04 05:09:00,26.0,25.8,30.06,NW,315,0.5,3.5,99,0.00,CLR,SKC,0.00,WeatherDisplay:10.37,2013-01-04 10:09:00,
2013-01-04 05:14:00,26.0,25.8,30.06,WSW,247,3.6,8.1,99,0.00,CLR,SKC,0.00,WeatherDisplay:10.37,2013-01-04 10:14:00,
2013-01-04 05:19:00,25.0,24.8,30.06,SSW,202,3.4,8.1,99,0.00,CLR,SKC,0.00,WeatherDisplay:10.37,2013-01-04 10:19:00,
2013-01-04 05:24:00,25.0,24.8,30.06,SSE,157,2.8,4.6,99,0.00,CLR,SKC,0.00,WeatherDisplay:10.37,2013-01-04 10:24:00,
2013-01-04 05:29:00,25.0,24.5,30.06,SW,225,3.1,5.0,98,0.00,CLR,SKC,0.00,WeatherDisplay:10.37,2013-01-04 10:29:00,
2013-01-04 05:34:00,25.0,24.5,30.07,WSW,247,4.4,8.1,98,0.00,CLR,SKC,0.00,WeatherDisplay:10.37,2013-01-04 10:34:00,
2013-01-04 05:39:00,25.0,24.8,30.07,SW,225,2.2,5.8,99,0.00,CLR,SKC,0.00,WeatherDisplay:10.37,2013-01-04 10:39:00,
2013-01-04 05:44:00,25.0,24.8,30.07,WSW,247,4.5,6.9,99,0.00,CLR,SKC,0.00,WeatherDisplay:10.37,2013-01-04 10:44:00,
2013-01-04 05:49:00,25.0,24.8,30.07,SSW,202,0.5,3.5,99,0.00,CLR,SKC,0.00,WeatherDisplay:10.37,2013-01-04 10:49:00,
2013-01-04 05:54:00,25.0,24.8,30.08,SSW,202,1.2,4.6,99,0.00,CLR,SKC,0.00,WeatherDisplay:10.37,2013-01-04 10:54:00,
2013-01-04 05:59:00,25.0,24.8,30.08,SSW,202,1.7,6.0,99,0.00,CLR,SKC,0.00,WeatherDisplay:10.37,2013-01-04 10:59:00,
2013-01-04 06:04:00,25.0,24.8,30.08,WSW,247,3.7,5.8,99,0.00,CLR,SKC,0.00,WeatherDisplay:10.37,2013-01-04 11:04:00,
2013-01-04 06:09:00,25.0,24.8,30.08,SSW,202,1.9,6.9,99,0.00,CLR,SKC,0.00,WeatherDisplay:10.37,2013-01-04 11:09:00,
2013-01-04 06:14:00,26.0,25.8,30.08,WSW,247,5.1,8.1,99,0.00,CLR,SKC,0.00,WeatherDisplay:10.37,2013-01-04 11:14:00,
2013-01-04 06:19:00,25.0,24.8,30.08,SW,225,1.2,3.5,99,0.00,CLR,SKC,0.00,WeatherDisplay:10.37,2013-01-04 11:19:00,
2013-01-04 06:24:00,25.0,24.8,30.08,WSW,247,2.7,4.6,99,0.00,CLR,SKC,0.00,WeatherDisplay:10.37,2013-01-04 11:24:00,
2013-01-04 06:29:00,25.0,24.8,30.08,SSW,202,0.6,4.0,99,0.00,CLR,SKC,0.00,WeatherDisplay:10.37,2013-01-04 11:29:00,
2013-01-04 06:34:00,25.0,24.8,30.09,WSW,247,2.2,4.6,99,0.00,CLR,SKC,0.00,WeatherDisplay:10.37,2013-01-04 11:34:00,
2013-01-04 06:39:00,25.0,24.8,30.09,West,270,1.3,3.5,99,0.00,CLR,SKC,0.00,WeatherDisplay:10.37,2013-01-04 11:39:00,
2013-01-04 06:44:00,25.0,24.8,30.09,WSW,247,2.1,4.6,99,0.00,CLR,SKC,0.00,WeatherDisplay:10.37,2013-01-04 11:44:00,
2013-01-04 06:49:00,25.0,24.8,30.09,WSW,247,0.0,0.0,99,0.00,CLR,SKC,0.00,WeatherDisplay:10.37,2013-01-04 11:49:00,
2013-01-04 06:54:00,25.0,24.8,30.08,SSW,202,0.0,0.0,99,0.00,CLR,SKC,0.00,WeatherDisplay:10.37,2013-01-04 11:54:00,
2013-01-04 06:59:00,25.0,24.8,30.08,SW,225,0.0,0.0,99,0.00,CLR,SKC,0.00,WeatherDisplay:10.37,2013-01-04 11:59:00,
2013-01-04 07:04:00,25.0,24.8,30.09,WSW,247,0.0,0.0,99,0.00,CLR,SKC,0.00,WeatherDisplay:10.37,2013-01-04 12:04:00,
2013-01-04 07:09:00,25.0,24.8,30.09,WSW,247,1.4,3.5,99,0.00,CLR,SKC,0.00,WeatherDisplay:10.37,2013-01-04 12:09:00,
2013-01-04 07:14:00,26.0,26.0,30.08,WSW,247,3.7,8.1,100,0.00,,SKC,0.00,WeatherDisplay:10.37,2013-01-04 12:14:00,
2013-01-04 07:19:00,27.0,27.0,30.08,WSW,247,1.4,4.6,100,0.00,,SKC,0.00,WeatherDisplay:10.37,2013-01-04 12:19:00,
2013-01-04 08:40:00,31.0,28.7,30.09,WSW,247,4.6,8.0,91,0.00,CLR,SKC,0.00,WeatherDisplay:10.37,2013-01-04 13:40:00,
2013-01-04 08:45:00,30.0,28.0,30.10,WSW,247,4.6,8.0,92,0.00,CLR,SKC,0.00,WeatherDisplay:10.37,2013-01-04 13:45:00,
2013-01-04 08:50:00,31.0,28.9,30.10,WSW,247,4.5,6.9,92,0.00,CLR,SKC,0.00,WeatherDisplay:10.37,2013-01-04 13:50:00,
2013-01-04 08:55:00,31.0,29.2,30.09,SW,225,5.1,10.4,93,0.00,CLR,SKC,0.00,WeatherDisplay:10.37,2013-01-04 13:55:00,
2013-01-04 09:00:00,32.0,29.9,30.09,SW,225,3.6,7.0,92,0.00,CLR,SKC,0.00,WeatherDisplay:10.37,2013-01-04 14:00:00,
2013-01-04 09:05:00,32.0,29.7,30.08,SSW,202,3.8,9.2,91,0.00,CLR,SKC,0.00,WeatherDisplay:10.37,2013-01-04 14:05:00,
2013-01-04 09:10:00,31.0,28.4,30.08,WSW,247,4.2,10.4,90,0.00,CLR,SKC,0.00,WeatherDisplay:10.37,2013-01-04 14:10:00,
2013-01-04 09:15:00,31.0,28.4,30.09,WSW,247,2.5,8.1,90,0.00,CLR,SKC,0.00,WeatherDisplay:10.37,2013-01-04 14:15:00,
2013-01-04 09:20:00,32.0,29.4,30.09,West,270,3.9,10.4,90,0.00,CLR,SKC,0.00,WeatherDisplay:10.37,2013-01-04 14:20:00,
2013-01-04 09:25:00,32.0,29.1,30.08,WSW,247,2.8,6.9,89,0.00,CLR,SKC,0.00,WeatherDisplay:10.37,2013-01-04 14:25:00,
2013-01-04 09:30:00,32.0,28.8,30.08,WSW,247,5.5,5.5,88,0.00,CLR,SKC,0.00,WeatherDisplay:10.37,2013-01-04 14:30:00,
2013-01-04 09:36:00,31.0,27.6,30.08,West,270,1.8,5.8,87,0.00,CLR,SKC,0.00,WeatherDisplay:10.37,2013-01-04 14:36:00,
2013-01-04 09:41:00,32.0,28.8,30.08,SW,225,3.9,7.0,88,0.00,CLR,SKC,0.00,WeatherDisplay:10.37,2013-01-04 14:41:00,
2013-01-04 09:46:00,32.0,29.4,30.08,SSE,157,4.4,11.5,90,0.00,CLR,SKC,0.00,WeatherDisplay:10.37,2013-01-04 14:46:00,
2013-01-04 09:51:00,32.0,29.1,30.08,SSW,202,5.9,10.4,89,0.00,CLR,SKC,0.00,WeatherDisplay:10.37,2013-01-04 14:51:00,
2013-01-04 09:56:00,32.0,28.8,30.08,WSW,247,5.3,10.4,88,0.00,CLR,SKC,0.00,WeatherDisplay:10.37,2013-01-04 14:56:00,
2013-01-04 10:01:00,33.0,29.6,30.08,West,270,6.1,10.4,87,0.00,CLR,SKC,0.00,WeatherDisplay:10.37,2013-01-04 15:01:00,
2013-01-04 10:06:00,33.0,29.6,30.07,SW,225,4.1,6.9,87,0.00,CLR,SKC,0.00,WeatherDisplay:10.37,2013-01-04 15:06:00,
2013-01-04 10:11:00,34.0,30.3,30.07,WSW,247,1.1,3.5,86,0.00,CLR,SKC,0.00,WeatherDisplay:10.37,2013-01-04 15:11:00,
2013-01-04 10:16:00,34.0,30.3,30.06,WSW,247,3.3,10.4,86,0.00,CLR,SKC,0.00,WeatherDisplay:10.37,2013-01-04 15:16:00,
2013-01-04 10:21:00,34.0,30.3,30.06,WSW,247,4.2,10.4,86,0.00,CLR,SKC,0.00,WeatherDisplay:10.37,2013-01-04 15:21:00,
2013-01-04 10:26:00,34.0,30.3,30.06,WNW,292,4.9,6.9,86,0.00,CLR,SKC,0.00,WeatherDisplay:10.37,2013-01-04 15:26:00,
2013-01-04 10:31:00,35.0,30.9,30.06,WSW,247,5.4,9.2,85,0.00,CLR,SKC,0.00,WeatherDisplay:10.37,2013-01-04 15:31:00,
2013-01-04 10:36:00,34.0,29.4,30.06,SSW,202,5.9,9.2,83,0.00,CLR,SKC,0.00,WeatherDisplay:10.37,2013-01-04 15:36:00,
2013-01-04 10:41:00,35.0,30.7,30.06,SW,225,3.9,10.4,84,0.00,CLR,SKC,0.00,WeatherDisplay:10.37,2013-01-04 15:41:00,
2013-01-04 10:46:00,36.0,31.0,30.06,WSW,247,4.4,5.8,82,0.00,CLR,SKC,0.00,WeatherDisplay:10.37,2013-01-04 15:46:00,
2013-01-04 10:51:00,35.0,29.1,30.06,NNW,337,1.1,10.4,79,0.00,CLR,SKC,0.00,WeatherDisplay:10.37,2013-01-04 15:51:00,
2013-01-04 10:56:00,36.0,30.1,30.05,WSW,247,5.7,11.5,79,0.00,CLR,SKC,0.00,WeatherDisplay:10.37,2013-01-04 15:56:00,
2013-01-04 11:01:00,36.0,29.5,30.05,WNW,292,5.9,10.4,77,0.00,CLR,SKC,0.00,WeatherDisplay:10.37,2013-01-04 16:01:00,
2013-01-04 11:06:00,35.0,28.5,30.04,West,270,2.3,3.5,77,0.00,CLR,SKC,0.00,WeatherDisplay:10.37,2013-01-04 16:06:00,
2013-01-04 11:11:00,35.0,28.2,30.04,West,270,7.1,10.4,76,0.00,CLR,SKC,0.00,WeatherDisplay:10.37,2013-01-04 16:11:00,
2013-01-04 11:16:00,35.0,28.2,30.03,West,270,6.5,8.0,76,0.00,CLR,SKC,0.00,WeatherDisplay:10.37,2013-01-04 16:16:00,
2013-01-04 11:21:00,35.0,28.8,30.03,SW,225,3.8,11.5,78,0.00,CLR,SKC,0.00,WeatherDisplay:10.37,2013-01-04 16:21:00,
2013-01-04 11:26:00,35.0,28.5,30.03,WSW,247,3.8,8.1,77,0.00,CLR,SKC,0.00,WeatherDisplay:10.37,2013-01-04 16:26:00,
2013-01-04 11:31:00,35.0,29.1,30.03,West,270,2.4,8.1,79,0.00,CLR,SKC,0.00,WeatherDisplay:10.37,2013-01-04 16:31:00,
2013-01-04 11:36:00,36.0,30.1,30.02,SW,225,6.7,11.5,79,0.00,CLR,SKC,0.00,WeatherDisplay:10.37,2013-01-04 16:36:00,
2013-01-04 11:41:00,36.0,30.1,30.02,SW,225,4.0,10.4,79,0.00,CLR,SKC,0.00,WeatherDisplay:10.37,2013-01-04 16:41:00,
2013-01-04 12:52:00,37.0,29.5,29.96,WSW,247,5.7,16.1,74,0.00,CLR,SKC,0.00,WeatherDisplay:10.37,2013-01-04 17:52:00,
2013-01-04 12:57:00,37.0,29.5,29.96,WSW,247,4.8,10.0,74,0.00,CLR,SKC,0.00,WeatherDisplay:10.37,2013-01-04 17:57:00,
2013-01-04 13:02:00,37.0,28.8,29.96,West,270,5.0,12.7,72,0.00,CLR,SKC,0.00,WeatherDisplay:10.37,2013-01-04 18:02:00,
2013-01-04 13:07:00,37.0,28.8,29.96,West,270,4.0,6.9,72,0.00,CLR,SKC,0.00,WeatherDisplay:10.37,2013-01-04 18:07:00,
2013-01-04 13:12:00,37.0,28.8,29.95,WSW,247,5.8,10.4,72,0.00,CLR,SKC,0.00,WeatherDisplay:10.37,2013-01-04 18:12:00,
2013-01-04 13:17:00,36.0,27.5,29.95,SW,225,6.7,12.7,71,0.00,CLR,SKC,0.00,WeatherDisplay:10.37,2013-01-04 18:17:00,
2013-01-04 13:22:00,37.0,28.8,29.95,WNW,292,4.5,11.5,72,0.00,CLR,SKC,0.00,WeatherDisplay:10.37,2013-01-04 18:22:00,
2013-01-04 13:27:00,36.0,27.8,29.95,WSW,247,5.1,11.5,72,0.00,CLR,SKC,0.00,WeatherDisplay:10.37,2013-01-04 18:27:00,
2013-01-04 13:32:00,37.0,27.8,29.95,West,270,5.1,9.2,69,0.00,CLR,SKC,0.00,WeatherDisplay:10.37,2013-01-04 18:32:00,
2013-01-04 13:37:00,36.0,27.5,29.95,SSW,202,4.8,10.4,71,0.00,CLR,SKC,0.00,WeatherDisplay:10.37,2013-01-04 18:37:00,
2013-01-04 13:42:00,36.0,27.5,29.94,WSW,247,5.2,9.2,71,0.00,CLR,SKC,0.00,WeatherDisplay:10.37,2013-01-04 18:42:00,
2013-01-04 13:47:00,36.0,28.5,29.94,West,270,3.6,8.1,74,0.00,CLR,SKC,0.00,WeatherDisplay:10.37,2013-01-04 18:47:00,
2013-01-04 13:52:00,36.0,28.2,29.94,WSW,247,7.6,11.5,73,0.00,CLR,SKC,0.00,WeatherDisplay:10.37,2013-01-04 18:52:00,
2013-01-04 13:57:00,36.0,28.8,29.94,WSW,247,5.9,11.5,75,0.00,CLR,SKC,0.00,WeatherDisplay:10.37,2013-01-04 18:57:00,
2013-01-04 14:02:00,36.0,26.1,29.94,SSW,202,8.4,18.4,67,0.00,CLR,SKC,0.00,WeatherDisplay:10.37,2013-01-04 19:02:00,
2013-01-04 14:07:00,36.0,27.2,29.94,WSW,247,6.4,10.4,70,0.00,CLR,SKC,0.00,WeatherDisplay:10.37,2013-01-04 19:07:00,
2013-01-04 14:12:00,36.0,27.5,29.94,West,270,6.3,13.8,71,0.00,CLR,SKC,0.00,WeatherDisplay:10.37,2013-01-04 19:12:00,
2013-01-04 14:17:00,36.0,28.5,29.94,WSW,247,8.2,13.8,74,0.00,CLR,SKC,0.00,WeatherDisplay:10.37,2013-01-04 19:17:00,
2013-01-04 14:22:00,36.0,29.5,29.94,WNW,292,7.0,12.7,77,0.00,CLR,SKC,0.00,WeatherDisplay:10.37,2013-01-04 19:22:00,
2013-01-04 14:27:00,36.0,30.7,29.94,SSW,202,9.2,15.0,81,0.00,CLR,SKC,0.00,WeatherDisplay:10.37,2013-01-04 19:27:00,
2013-01-04 14:32:00,36.0,30.7,29.94,SSW,202,6.4,17.3,81,0.00,CLR,SKC,0.00,WeatherDisplay:10.37,2013-01-04 19:32:00,
2013-01-04 14:37:00,35.0,30.4,29.94,SW,225,8.1,17.3,83,0.00,CLR,SKC,0.00,WeatherDisplay:10.37,2013-01-04 19:37:00,
2013-01-04 14:42:00,36.0,31.9,29.94,West,270,8.1,12.7,85,0.00,CLR,SKC,0.00,WeatherDisplay:10.37,2013-01-04 19:42:00,
2013-01-04 14:47:00,35.0,30.7,29.94,WSW,247,7.6,19.6,84,0.00,CLR,SKC,0.00,WeatherDisplay:10.37,2013-01-04 19:47:00,
2013-01-04 14:52:00,35.0,30.4,29.94,WSW,247,4.6,11.5,83,0.00,CLR,SKC,0.00,WeatherDisplay:10.37,2013-01-04 19:52:00,
2013-01-04 14:57:00,35.0,30.4,29.94,WSW,247,7.6,13.8,83,0.00,CLR,SKC,0.00,WeatherDisplay:10.37,2013-01-04 19:57:00,
2013-01-04 15:02:00,35.0,30.9,29.94,SW,225,9.9,13.8,85,0.00,CLR,SKC,0.00,WeatherDisplay:10.37,2013-01-04 20:02:00,
2013-01-04 15:07:00,35.0,30.7,29.94,SSW,202,6.3,8.1,84,0.00,CLR,SKC,0.00,WeatherDisplay:10.37,2013-01-04 20:07:00,
2013-01-04 15:12:00,35.0,30.1,29.95,WSW,247,6.7,11.5,82,0.00,CLR,SKC,0.00,WeatherDisplay:10.37,2013-01-04 20:12:00,
2013-01-04 15:17:00,34.0,30.0,29.95,WSW,247,6.7,18.4,85,0.00,CLR,SKC,0.00,WeatherDisplay:10.37,2013-01-04 20:17:00,
2013-01-04 15:22:00,35.0,30.9,29.96,SSW,202,8.7,18.4,85,0.00,CLR,SKC,0.00,WeatherDisplay:10.37,2013-01-04 20:22:00,
2013-01-04 15:27:00,34.0,30.3,29.96,WSW,247,6.5,12.7,86,0.00,CLR,SKC,0.00,WeatherDisplay:10.37,2013-01-04 20:27:00,
2013-01-04 15:32:00,34.0,30.5,29.95,WNW,292,8.8,17.3,87,0.00,CLR,SKC,0.00,WeatherDisplay:10.37,2013-01-04 20:32:00,
2013-01-04 15:37:00,34.0,30.5,29.95,WNW,292,8.9,16.1,87,0.00,CLR,SKC,0.00,WeatherDisplay:10.37,2013-01-04 20:37:00,
2013-01-04 15:42:00,34.0,30.5,29.96,SSE,157,8.1,17.3,87,0.00,CLR,SKC,0.00,WeatherDisplay:10.37,2013-01-04 20:42:00,
2013-01-04 15:47:00,34.0,31.1,29.96,WSW,247,5.6,12.7,89,0.00,CLR,SKC,0.00,WeatherDisplay:10.37,2013-01-04 20:47:00,
2013-01-04 15:52:00,34.0,31.4,29.95,West,270,9.2,16.1,90,0.00,CLR,SKC,0.00,WeatherDisplay:10.37,2013-01-04 20:52:00,
2013-01-04 15:57:00,34.0,31.9,29.95,WSW,247,9.9,16.1,92,0.00,CLR,SKC,0.00,WeatherDisplay:10.37,2013-01-04 20:57:00,
2013-01-04 16:02:00,34.0,31.9,29.96,SSW,202,6.8,13.8,92,0.00,CLR,SKC,0.00,WeatherDisplay:10.37,2013-01-04 21:02:00,
2013-01-04 16:07:00,34.0,32.5,29.96,SW,225,6.7,10.4,94,0.00,CLR,SKC,0.00,WeatherDisplay:10.37,2013-01-04 21:07:00,
2013-01-04 16:12:00,34.0,32.7,29.95,West,270,5.4,13.8,95,0.00,CLR,SKC,0.00,WeatherDisplay:10.37,2013-01-04 21:12:00,
2013-01-04 16:17:00,34.0,33.0,29.95,WSW,247,10.2,18.4,96,0.00,CLR,SKC,0.00,WeatherDisplay:10.37,2013-01-04 21:17:00,
2013-01-04 16:22:00,34.0,33.0,29.94,WSW,247,6.8,13.8,96,0.00,CLR,SKC,0.00,WeatherDisplay:10.37,2013-01-04 21:22:00,
2013-01-04 16:27:00,34.0,33.2,29.94,WSW,247,6.8,12.7,97,0.00,CLR,SKC,0.00,WeatherDisplay:10.37,2013-01-04 21:27:00,
2013-01-04 16:32:00,34.0,33.2,29.94,SSW,202,4.6,9.2,97,0.00,CLR,SKC,0.00,WeatherDisplay:10.37,2013-01-04 21:32:00,
2013-01-04 16:37:00,34.0,33.2,29.94,SW,225,6.3,11.5,97,0.00,CLR,SKC,0.00,WeatherDisplay:10.37,2013-01-04 21:37:00,
2013-01-04 16:42:00,34.0,33.2,29.94,SSW,202,7.9,18.4,97,0.00,CLR,SKC,0.00,WeatherDisplay:10.37,2013-01-04 21:42:00,
2013-01-04 16:47:00,34.0,33.0,29.94,WSW,247,7.5,12.7,96,0.00,CLR,SKC,0.00,WeatherDisplay:10.37,2013-01-04 21:47:00,
2013-01-04 16:52:00,34.0,33.0,29.94,West,270,7.6,11.5,96,0.00,CLR,SKC,0.00,WeatherDisplay:10.37,2013-01-04 21:52:00,
2013-01-04 16:57:00,33.0,32.0,29.94,SSW,202,7.5,11.5,96,0.00,CLR,SKC,0.00,WeatherDisplay:10.37,2013-01-04 21:57:00,
2013-01-04 17:02:00,33.0,32.2,29.95,WSW,247,4.4,11.5,97,0.00,CLR,SKC,0.00,WeatherDisplay:10.37,2013-01-04 22:02:00,
2013-01-04 17:07:00,33.0,32.2,29.95,WSW,247,6.5,11.5,97,0.00,CLR,SKC,0.00,WeatherDisplay:10.37,2013-01-04 22:07:00,
2013-01-04 17:12:00,34.0,33.2,29.94,SW,225,6.8,8.0,97,0.00,CLR,SKC,0.00,WeatherDisplay:10.37,2013-01-04 22:12:00,
2013-01-04 17:17:00,34.0,33.2,29.94,WNW,292,8.5,15.0,97,0.00,CLR,SKC,0.00,WeatherDisplay:10.37,2013-01-04 22:17:00,
2013-01-04 17:22:00,33.0,32.2,29.94,WNW,292,5.6,12.7,97,0.00,CLR,SKC,0.00,WeatherDisplay:10.37,2013-01-04 22:22:00,
2013-01-04 17:33:00,34.0,33.2,29.95,WSW,247,7.5,17.3,97,0.00,CLR,SKC,0.00,WeatherDisplay:10.37,2013-01-04 22:33:00,
2013-01-04 17:38:00,33.0,32.2,29.95,WSW,247,7.2,16.0,97,0.00,CLR,SKC,0.00,WeatherDisplay:10.37,2013-01-04 22:38:00,
2013-01-04 17:43:00,33.0,32.2,29.95,WSW,247,6.5,13.8,97,0.00,CLR,SKC,0.00,WeatherDisplay:10.37,2013-01-04 22:43:00,
2013-01-04 17:48:00,33.0,32.2,29.95,WNW,292,5.2,10.4,97,0.00,CLR,SKC,0.00,WeatherDisplay:10.37,2013-01-04 22:48:00,
2013-01-04 17:53:00,33.0,32.2,29.95,SSW,202,4.5,10.4,97,0.00,CLR,SKC,0.00,WeatherDisplay:10.37,2013-01-04 22:53:00,
2013-01-04 17:58:00,33.0,32.2,29.95,SSW,202,4.5,10.4,97,0.00,CLR,SKC,0.00,WeatherDisplay:10.37,2013-01-04 22:58:00,
2013-01-04 18:03:00,33.0,32.2,29.96,WNW,292,8.3,12.7,97,0.00,CLR,SKC,0.00,WeatherDisplay:10.37,2013-01-04 23:03:00,
2013-01-04 18:08:00,33.0,32.0,29.96,WSW,247,9.7,13.8,96,0.00,CLR,SKC,0.00,WeatherDisplay:10.37,2013-01-04 23:08:00,
2013-01-04 18:13:00,33.0,32.0,29.96,WSW,247,6.4,12.7,96,0.00,CLR,SKC,0.00,WeatherDisplay:10.37,2013-01-04 23:13:00,
2013-01-04 18:18:00,33.0,32.0,29.96,SSW,202,6.5,13.8,96,0.00,CLR,SKC,0.00,WeatherDisplay:10.37,2013-01-04 23:18:00,
2013-01-04 18:23:00,33.0,32.0,29.96,WSW,247,6.6,10.4,96,0.00,CLR,SKC,0.00,WeatherDisplay:10.37,2013-01-04 23:23:00,
2013-01-04 18:28:00,33.0,32.0,29.96,WSW,247,5.6,10.4,96,0.00,CLR,SKC,0.00,WeatherDisplay:10.37,2013-01-04 23:28:00,
2013-01-04 18:33:00,33.0,32.2,29.95,West,270,6.8,10.4,97,0.00,CLR,SKC,0.00,WeatherDisplay:10.37,2013-01-04 23:33:00,
2013-01-04 18:38:00,33.0,32.2,29.95,WSW,247,4.5,9.2,97,0.00,CLR,SKC,0.00,WeatherDisplay:10.37,2013-01-04 23:38:00,
2013-01-04 18:43:00,33.0,32.2,29.96,WNW,292,6.1,16.1,97,0.00,CLR,SKC,0.00,WeatherDisplay:10.37,2013-01-04 23:43:00,
2013-01-04 18:48:00,33.0,32.2,29.96,WSW,247,5.4,10.4,97,0.00,CLR,SKC,0.00,WeatherDisplay:10.37,2013-01-04 23:48:00,
2013-01-04 18:53:00,33.0,32.2,29.97,WNW,292,6.9,12.7,97,0.00,CLR,SKC,0.00,WeatherDisplay:10.37,2013-01-04 23:53:00,
2013-01-04 18:58:00,33.0,32.2,29.97,WSW,247,6.9,15.0,97,0.00,CLR,SKC,0.00,WeatherDisplay:10.37,2013-01-04 23:58:00,
2013-01-04 19:03:00,33.0,32.2,29.97,WSW,247,5.4,10.0,97,0.00,CLR,SKC,0.00,WeatherDisplay:10.37,2013-01-05 00:03:00,
2013-01-04 19:08:00,33.0,32.0,29.97,WNW,292,6.1,12.7,96,0.00,CLR,SKC,0.00,WeatherDisplay:10.37,2013-01-05 00:08:00,
2013-01-04 19:13:00,33.0,32.0,29.96,West,270,4.3,12.7,96,0.00,CLR,SKC,0.00,WeatherDisplay:10.37,2013-01-05 00:13:00,
2013-01-04 19:18:00,33.0,32.0,29.96,West,270,7.5,11.0,96,0.00,CLR,SKC,0.00,WeatherDisplay:10.37,2013-01-05 00:18:00,
2013-01-04 19:23:00,33.0,31.7,29.98,WSW,247,4.8,9.2,95,0.00,CLR,SKC,0.00,WeatherDisplay:10.37,2013-01-05 00:23:00,
2013-01-04 19:28:00,33.0,31.7,29.98,West,270,2.6,8.1,95,0.00,CLR,SKC,0.00,WeatherDisplay:10.37,2013-01-05 00:28:00,
2013-01-04 19:33:00,33.0,31.7,29.98,West,270,4.5,9.2,95,0.00,CLR,SKC,0.00,WeatherDisplay:10.37,2013-01-05 00:33:00,
2013-01-04 19:38:00,33.0,31.7,29.98,WSW,247,4.6,10.0,95,0.00,CLR,SKC,0.00,WeatherDisplay:10.37,2013-01-05 00:38:00,
2013-01-04 19:43:00,33.0,31.7,29.97,WSW,247,4.3,10.4,95,0.00,CLR,SKC,0.00,WeatherDisplay:10.37,2013-01-05 00:43:00,
2013-01-04 19:48:00,33.0,31.5,29.97,SSW,202,4.0,9.2,94,0.00,CLR,SKC,0.00,WeatherDisplay:10.37,2013-01-05 00:48:00,
2013-01-04 19:53:00,33.0,31.2,29.98,WSW,247,3.1,15.0,93,0.00,CLR,SKC,0.00,WeatherDisplay:10.37,2013-01-05 00:53:00,
2013-01-04 19:58:00,33.0,30.9,29.98,SSW,202,5.0,11.5,92,0.00,CLR,SKC,0.00,WeatherDisplay:10.37,2013-01-05 00:58:00,
2013-01-04 20:03:00,33.0,31.2,29.97,WSW,247,4.6,17.3,93,0.00,CLR,SKC,0.00,WeatherDisplay:10.37,2013-01-05 01:03:00,
2013-01-04 20:08:00,33.0,31.2,29.97,WSW,247,7.7,8.1,93,0.00,CLR,SKC,0.00,WeatherDisplay:10.37,2013-01-05 01:08:00,
2013-01-04 20:13:00,33.0,31.2,29.97,WSW,247,8.0,12.7,93,0.00,CLR,SKC,0.00,WeatherDisplay:10.37,2013-01-05 01:13:00,
2013-01-04 20:18:00,33.0,30.9,29.97,SW,225,4.1,11.5,92,0.00,CLR,SKC,0.00,WeatherDisplay:10.37,2013-01-05 01:18:00,
2013-01-04 20:23:00,33.0,30.9,29.98,WSW,247,4.9,18.4,92,0.00,CLR,SKC,0.00,WeatherDisplay:10.37,2013-01-05 01:23:00,
2013-01-04 20:28:00,32.0,30.5,29.98,SSW,202,5.4,11.5,94,0.00,CLR,SKC,0.00,WeatherDisplay:10.37,2013-01-05 01:28:00,
2013-01-04 20:33:00,32.0,30.5,29.97,WSW,247,7.5,12.7,94,0.00,CLR,SKC,0.00,WeatherDisplay:10.37,2013-01-05 01:33:00,
2013-01-04 20:38:00,32.0,30.5,29.97,WNW,292,5.5,9.2,94,0.00,CLR,SKC,0.00,WeatherDisplay:10.37,2013-01-05 01:38:00,
2013-01-04 20:43:00,32.0,30.5,29.96,SW,225,7.3,16.1,94,0.00,CLR,SKC,0.00,WeatherDisplay:10.37,2013-01-05 01:43:00,
2013-01-04 20:48:00,32.0,30.5,29.96,West,270,6.6,12.7,94,0.00,CLR,SKC,0.00,WeatherDisplay:10.37,2013-01-05 01:48:00,
2013-01-04 20:53:00,32.0,30.5,29.97,West,270,4.6,10.0,94,0.00,CLR,SKC,0.00,WeatherDisplay:10.37,2013-01-05 01:53:00,
2013-01-04 21:02:00,32.0,30.5,29.96,NW,315,6.3,14.0,94,0.00,CLR,SKC,0.00,WeatherDisplay:10.37,2013-01-05 02:02:00,
2013-01-04 21:07:00,32.0,30.5,29.96,WSW,247,6.0,10.4,94,0.00,CLR,SKC,0.00,WeatherDisplay:10.37,2013-01-05 02:07:00,
2013-01-04 21:12:00,32.0,30.5,29.97,WSW,247,4.3,11.5,94,0.00,CLR,SKC,0.00,WeatherDisplay:10.37,2013-01-05 02:12:00,
2013-01-04 21:20:00,32.0,30.5,29.97,West,270,5.7,17.3,94,0.00,CLR,SKC,0.00,WeatherDisplay:10.37,2013-01-05 02:20:00,
2013-01-04 21:25:00,32.0,30.5,29.97,WNW,292,5.1,17.3,94,0.00,CLR,SKC,0.00,WeatherDisplay:10.37,2013-01-05 02:25:00,
2013-01-04 21:30:00,32.0,30.5,29.97,WSW,247,6.6,11.0,94,0.00,CLR,SKC,0.00,WeatherDisplay:10.37,2013-01-05 02:30:00,
2013-01-04 21:41:00,32.0,30.5,29.97,WSW,247,3.6,11.5,94,0.00,CLR,SKC,0.00,WeatherDisplay:10.37,2013-01-05 02:41:00,
2013-01-04 21:48:00,32.0,30.5,29.97,WNW,292,6.6,10.4,94,0.00,CLR,SKC,0.00,WeatherDisplay:10.37,2013-01-05 02:48:00,
2013-01-04 21:59:00,32.0,30.2,29.97,WNW,292,7.0,16.1,93,0.00,CLR,SKC,0.00,WeatherDisplay:10.37,2013-01-05 02:59:00,
2013-01-04 22:07:00,32.0,29.9,29.96,West,270,5.4,15.0,92,0.00,CLR,SKC,0.00,WeatherDisplay:10.37,2013-01-05 03:07:00,
2013-01-04 22:18:00,32.0,29.4,29.97,WNW,292,5.1,14.0,90,0.00,CLR,SKC,0.00,WeatherDisplay:10.37,2013-01-05 03:18:00,
2013-01-04 22:25:00,32.0,29.4,29.97,WNW,292,6.6,12.0,90,0.00,CLR,SKC,0.00,WeatherDisplay:10.37,2013-01-05 03:25:00,
2013-01-04 22:30:00,32.0,29.4,29.97,SW,225,5.9,12.0,90,0.00,CLR,SKC,0.00,WeatherDisplay:10.37,2013-01-05 03:30:00,
2013-01-04 22:45:00,32.0,29.4,29.97,West,266,7.0,15.0,90,0.00,CLR,SKC,0.00,WeatherDisplay:10.37,2013-01-05 03:45:00,
2013-01-04 23:02:00,32.0,29.4,29.96,SW,225,6.0,16.1,90,0.00,CLR,SKC,0.00,WeatherDisplay:10.37,2013-01-05 04:02:00,
2013-01-04 23:07:00,32.0,29.7,29.96,SSW,202,3.3,16.1,91,0.00,CLR,SKC,0.00,WeatherDisplay:10.37,2013-01-05 04:07:00,
2013-01-04 23:18:00,32.0,29.7,29.97,West,270,6.8,16.1,91,0.00,CLR,SKC,0.00,WeatherDisplay:10.37,2013-01-05 04:18:00,
2013-01-04 23:25:00,32.0,29.9,29.96,WNW,292,5.5,12.0,92,0.00,CLR,SKC,0.00,WeatherDisplay:10.37,2013-01-05 04:25:00,
2013-01-04 23:30:00,32.0,29.9,29.96,NW,315,5.8,15.0,92,0.00,CLR,SKC,0.00,WeatherDisplay:10.37,2013-01-05 04:30:00,
2013-01-04 23:35:00,32.0,30.2,29.97,WNW,292,5.1,14.0,93,0.00,CLR,SKC,0.00,WeatherDisplay:10.37,2013-01-05 04:35:00,
2013-01-04 23:41:00,32.0,30.2,29.97,SSW,202,7.1,14.0,93,0.00,CLR,SKC,0.00,WeatherDisplay:10.37,2013-01-05 04:41:00,
2013-01-04 23:51:00,31.0,29.2,29.96,WNW,292,6.7,13.0,93,0.00,CLR,SKC,0.00,WeatherDisplay:10.37,2013-01-05 04:51:00,